Previous Day
Next Day
Current Day
SHEF ID: LVLO2 Skeleton Creek near Lovell, OK
STATION TYPE:
Regulating: Stage = 38.00, Flow = 12490
PRECIP STAGE RIV-FLOW BAT-LOAD
in ft cfs volt
Ccp-Rev Ccp-Rev Ccp-Rev Ccp-Rev
(US/Central)
07/28 00:00 0.00 8.88 19 12.40
07/28 01:00 0.00 8.88 19 12.40
07/28 02:00 0.00 8.87 19 12.39
07/28 03:00 0.00 8.87 19 12.37
07/28 04:00 0.00 8.87 19 12.36
07/28 05:00 0.00 8.88 19 12.36
07/28 06:00 0.00 8.88 19 12.35
07/28 07:00 0.01 8.89 19 12.34
07/28 08:00 0.00 8.89 19 12.34
07/28 09:00 0.02 8.89 19 12.36
07/28 10:00 0.00 8.90 20 12.47
07/28 11:00 0.00 8.89 19 13.28
07/28 12:00 0.00 8.89 19 13.13
07/28 13:00 0.00 8.90 20 13.04
07/28 14:00 0.00 8.88 19 12.96
07/28 15:00 0.00 8.88 19 12.94
07/28 16:00 0.00 8.88 19 12.93
07/28 17:00 0.00 8.88 19 12.88
07/28 18:00 0.00 8.89 19 12.86
07/28 19:00 0.00 8.88 19 12.83
07/28 20:00 0.00 8.88 19 12.73
07/28 21:00 0.00 8.88 19 12.54
07/28 22:00 0.00 8.89 19 12.46
07/28 23:00 0.00 8.89 19 12.42